Location: Mapua
(41.2500°S, 173.1000°E)
Time: 23:53:53
(UTC+13:00)

Mayak - Visible Passes

Search period start: 18 February 2018 00:00
Search period end: 28 February 2018 00:00
Orbit: 585 x 603 km, 97.6° (Epoch: 17 February)

Date Brightness Start Highest point End Pass type
(mag) Time Alt. Az. Time Alt. Az. Time Alt. Az.
18 Feb 1.7 01:04:46 12° SW 01:04:46 12° SW 01:05:16 10° SW visible
18 Feb 0.9 23:37:42 21° SSE 23:37:42 21° SSE 23:39:21 10° S visible
19 Feb 1.0 23:47:16 21° SSE 23:47:16 21° SSE 23:48:51 10° S visible
20 Feb 1.1 23:56:50 21° S 23:56:50 21° S 23:58:19 10° S visible
22 Feb 1.2 00:06:24 20° S 00:06:24 20° S 00:07:45 10° S visible
23 Feb 1.4 00:15:58 18° SSW 00:15:58 18° SSW 00:17:08 10° SSW visible
24 Feb 1.6 00:25:32 16° SSW 00:25:32 16° SSW 00:26:29 10° SSW visible
24 Feb 1.4 22:58:28 11° SE 22:58:28 11° SE 22:58:39 10° SSE visible
25 Feb 1.7 00:35:06 14° SSW 00:35:06 14° SSW 00:35:47 10° SSW visible
25 Feb 1.4 23:08:02 12° SSE 23:08:02 12° SSE 23:08:31 10° SSE visible
26 Feb 1.9 00:44:40 12° SSW 00:44:40 12° SSW 00:45:02 10° SSW visible
26 Feb 1.4 23:17:36 13° SSE 23:17:36 13° SSE 23:18:13 10° SSE visible
27 Feb 2.1 00:54:14 10° SSW 00:54:14 10° SSW 00:54:14 10° SSW visible
27 Feb 1.4 23:27:10 14° SSE 23:27:10 14° SSE 23:27:50 10° SSE visible
